Current Conditions
Rain
Showers



Rainfall
0.00 (mm) - 0.00 (in)
Pressure
1008.92 (hPa) - 29.79 (inHG)
Visibility

9.0 (km) - 5.6 (miles)
   Temperature
18  °C
64°F
18  °C
Dewpoint
100  %
 Humidity
   Wind Speed
2.2  m/s
5  mph
8  km/h
4  kts
   Wind Direction
 10°
Due North
   Airport Data
ESMX
Location Växjö Kronoberg Airport 15 km (9.32 mi)
Metar :ESMX 160120Z AUTO 01004KT 9000 RA FEW001/// OVC088/// 18/18 Q1009
Tue 16th August 02:20 am
   Raw Metar Info
Raw METAR is the most common format in the world for the transmission of observational weather data. It is highly standardized through the International Civil Aviation Organization (ICAO), which allows it to be understood throughout most of the world.
   API Info
Data Provided by
https://www.checkwx.com/weather/ESMX
   © Info
CSS/SVG/PHP scripts were developed by weather34.com for use in the weather34 template © 2015-2022

Guide Info provided by Metar-Wikipedia